Location: Taupo
(38.6830°S, 176.0830°E)
Time: 09:56:46
(UTC+13:00)

H-2A R/B - Pass Details

Date: 24 January 2019
Orbit: 734 x 836 km, 98.3° (Epoch: 21 October)

Event Time Altitude Azimuth Distance (km) Brightness Sun altitude
Rises 22:34:41 0° 166° (SSE) 3,258 5.7 -19.3°
Reaches altitude 10° 22:37:02 10° 165° (SSE) 2,311 4.9 -19.6°
Maximum altitude 22:42:07 78° 78° (ENE) 771 1.8 -20.3°
Enters shadow 22:44:23 33° 356° (N) 1,238 2.7 -20.6°
